Temperature
30 29 28 27 27 28 27 28 28 28 27 26 25 25 24 25 25 24 24 23 23 22 22 21 21 21 21 20 20 20 19 19 19 19 18 18 18 18 18 17 17 17 17 17
29 29 29 28 29 29 28 29 29 29 27 26 25 24 24 24 24 23 23 23 22 22 22 21 21 21 21 20 20 20 20 19 19 19 18 18 18 18 17 17 17 17 17 17
27 29 28 27 29 29 29 30 29 28 26 25 24 24 23 23 23 22 21 21 21 21 21 21 20 20 20 20 20 20 20 19 19 19 18 18 17 17 17 17 17 16 16 16
27 27 25 27 29 29 29 29 29 27 26 25 23 22 22 22 21 20 20 19 19 19 19 19 19 19 19 19 19 19 19 18 18 18 17 17 17 17 16 16 16 16 16 16
26 26 26 26 26 27 27 27 28 26 25 23 22 21 20 20 19 19 18 18 18 18 18 18 18 18 18 18 18 18 17 17 17 16 16 16 16 16 16 15 15 15 15 15
25 25 24 25 25 26 27 25 27 25 24 23 22 22 20 18 18 17 17 16 16 16 17 17 17 17 17 16 16 16 16 15 15 15 15 15 15 15 15 14 14 14 14 14
25 25 25 24 24 25 24 23 25 24 23 23 23 21 18 17 16 16 15 15 15 16 15 15 15 16 16 15 15 14 14 14 14 14 14 14 14 14 14 13 13 13 13 13
24 24 22 22 22 22 22 23 24 23 22 21 19 18 17 16 16 15 15 15 15 15 14 14 14 14 14 14 13 13 13 13 13 13 13 13 13 13 13 13 13 13 13 13
21 21 21 20 20 21 23 23 23 23 21 20 18 17 17 16 15 15 14 14 14 14 13 13 13 13 13 12 12 12 12 12 12 12 12 12 12 12 12 12 12 12 12 12
19 19 20 20 21 22 23 23 22 21 20 19 18 17 16 15 15 14 14 14 13 13 13 12 12 12 12 12 12 12 11 11 12 12 12 11 11 11 11 11 11 11 11 10
19 19 20 20 21 22 22 22 21 20 19 18 17 17 16 15 14 14 14 13 13 13 12 12 11 11 11 11 11 11 11 11 11 11 11 11 11 11 11 11 10 10 10 9
19 20 20 20 21 21 21 20 20 19 18 17 17 16 15 15 14 14 13 13 13 12 12 12 11 11 11 11 11 11 11 11 11 11 11 11 11 11 11 10 10 10 9 9
20 20 20 21 21 20 20 19 19 18 17 16 16 15 15 14 14 13 13 13 12 12 12 12 11 11 10 10 10 10 10 10 10 10 10 10 10 10 10 10 10 9 9 8
20 20 20 20 19 19 19 18 17 16 16 15 15 14 14 13 13 13 13 12 12 12 12 11 11 11 10 10 10 10 10 10 10 10 10 10 9 9 9 9 9 8 8 8
20 20 19 19 18 18 17 17 16 15 15 14 14 14 13 13 13 12 12 12 12 11 11 11 10 10 10 10 9 9 9 9 9 9 9 9 9 9 8 8 8 7 7 7
19 18 18 18 17 17 16 16 15 15 14 14 13 13 13 13 12 12 12 12 11 11 11 10 10 10 9 9 9 9 9 9 9 8 8 8 8 7 7 7 7 6 6 5
18 17 17 17 16 16 15 15 14 14 14 13 13 13 12 12 12 12 11 11 11 10 10 10 9 9 8 8 8 8 8 8 8 8 8 7 7 6 6 6 5 5 5 4
16 16 16 15 15 14 14 14 13 13 13 12 12 12 12 12 11 11 11 10 10 10 9 9 9 8 8 8 8 7 7 7 7 7 6 6 5 5 5 5 4 4 4 4
15 15 14 14 14 13 13 13 13 13 12 12 12 12 11 11 11 11 10 10 10 9 9 9 8 8 7 7 7 7 7 7 6 6 5 5 5 4 4 4 3 3 3 3
14 14 13 13 13 13 13 12 12 12 12 12 11 11 11 11 11 10 10 9 9 9 8 8 7 7 7 6 6 6 6 6 5 5 4 4 4 3 3 3 2 2 2 2
13 13 13 13 13 12 12 12 12 12 11 11 11 11 11 10 10 10 10 9 8 8 8 7 7 6 6 6 6 5 5 5 4 4 4 3 3 3 2 2 2 2 2 2
12 12 12 12 12 12 12 12 12 11 11 11 11 11 10 10 10 9 9 8 8 7 7 6 6 6 5 5 5 5 4 4 3 3 3 3 2 2 2 2 2 2 1 1
12 12 12 12 12 12 12 12 11 11 11 11 10 10 10 9 9 9 8 7 7 7 6 6 5 5 5 4 4 4 3 3 3 3 2 2 2 2 2 2 1 1 1 1
11 11 11 11 12 11 11 11 11 11 10 10 10 10 9 9 8 8 7 7 6 6 5 5 4 4 4 3 3 3 3 2 2 2 2 2 2 1 1 1 1 1 1 1
11 11 11 11 11 11 11 11 11 10 10 10 9 9 9 8 7 7 6 6 5 5 4 4 3 3 3 3 3 2 2 2 2 1 1 1 1 1 1 1 1 1 0 0
11 11 11 11 10 10 10 10 10 10 9 9 8 8 7 7 6 6 5 5 4 4 4 3 3 3 3 3 2 2 2 2 1 1 1 1 1 1 1 0 0 0 -0 -0
11 11 10 10 10 10 10 9 9 9 8 8 7 7 6 6 5 5 4 4 4 3 3 3 3 3 3 2 2 2 1 1 1 1 1 0 0 0 -0 -0 -0 -0 -1 -1
Wind_Speed
16 10 10 12 14 12 12 12 11 6 3 6 6 8 6 6 7 8 8 8 8 8 7 6 7 7 8 8 8 8 8 8 9 9 8 8 8 8 8 9 10 9 9 9
14 13 12 13 13 11 12 12 10 6 2 8 10 8 7 7 8 8 8 7 7 8 8 7 6 6 6 6 6 6 7 6 5 5 4 4 5 5 6 7 7 8 9 9
13 13 12 14 12 12 12 10 6 3 7 12 11 9 8 8 10 10 10 9 9 8 8 6 6 5 5 4 4 4 4 3 2 3 3 2 2 2 2 3 4 4 5 6
13 10 14 9 6 6 6 4 2 7 11 14 13 11 11 10 11 11 11 11 11 11 11 10 10 9 8 8 8 8 7 6 6 5 4 3 3 3 2 1 2 3 4 5
12 13 12 6 3 4 4 3 4 9 12 15 17 15 12 12 13 13 13 12 12 12 13 12 12 11 11 11 10 10 9 8 8 6 5 5 5 4 3 2 2 3 4 4
12 11 9 3 0 3 2 2 6 10 11 15 15 9 9 12 14 15 14 14 14 14 14 14 12 12 13 13 12 11 10 9 8 7 7 7 6 5 4 3 3 4 4 4
15 11 3 3 3 1 3 2 7 9 10 11 8 10 15 15 15 15 14 14 14 14 13 12 11 12 13 12 11 10 9 9 8 7 6 6 6 5 5 5 5 5 5 4
11 10 4 5 5 2 2 4 7 9 12 14 18 20 18 16 15 14 14 14 14 13 12 10 10 11 12 10 9 8 8 8 7 7 7 6 5 4 4 4 5 5 4 5
1 2 5 6 5 3 3 5 8 11 17 19 20 19 18 16 14 14 13 12 12 12 12 10 10 10 10 8 7 7 7 6 5 4 4 3 4 4 4 3 3 5 5 6
3 5 4 3 3 2 4 7 10 14 17 19 19 19 17 15 14 13 12 11 11 11 11 10 9 8 8 7 6 6 5 4 3 2 2 3 3 4 4 5 5 5 6 6
4 2 2 3 3 3 9 11 13 15 16 17 19 18 17 15 13 12 11 11 10 9 9 9 7 6 7 6 5 5 4 4 4 4 3 3 3 3 3 2 1 2 4 5
2 2 3 4 5 8 10 12 14 16 16 15 16 18 17 14 12 11 11 10 9 9 8 7 6 6 6 6 6 6 6 7 7 6 5 5 5 5 4 4 4 5 5 5
4 6 7 9 11 12 13 14 16 18 18 17 16 16 16 13 11 10 10 9 8 7 7 6 5 5 5 5 5 6 6 6 7 7 7 7 7 7 7 5 4 5 5 5
8 8 10 12 12 13 16 20 20 19 18 17 16 15 14 12 11 10 9 8 7 6 5 4 5 6 5 5 5 6 7 6 6 6 7 8 7 7 7 8 8 5 3 3
9 10 12 15 16 18 18 19 19 18 17 16 14 13 12 11 10 8 7 6 5 5 4 5 6 6 6 6 7 7 8 6 6 7 8 8 7 8 8 9 8 8 8 6
11 13 15 16 17 17 17 17 16 15 15 14 12 11 10 9 8 7 6 5 4 4 5 5 5 5 6 6 8 8 6 5 6 7 8 8 7 8 9 9 9 8 8 9
12 14 15 15 16 16 16 15 15 13 13 12 10 9 8 8 6 5 5 5 4 4 5 5 4 4 5 6 7 8 8 7 8 7 7 8 8 9 9 9 9 9 9 8
14 15 15 16 15 16 15 14 13 12 10 9 8 7 6 5 4 3 3 2 3 4 4 5 4 4 4 5 6 7 8 8 8 8 7 7 8 8 9 8 9 10 10 10
17 17 17 16 15 14 12 11 10 9 7 7 6 5 4 3 1 1 1 1 2 3 4 4 4 3 4 6 7 6 7 8 7 7 7 7 7 8 8 9 9 10 10 10
16 15 15 14 13 11 9 8 7 6 6 5 4 3 2 2 1 2 2 3 4 4 4 4 4 5 6 7 8 7 7 7 8 8 8 8 8 8 8 9 10 10 10 10
13 12 11 10 9 8 7 6 5 4 3 2 1 1 1 1 1 1 2 4 5 4 3 3 4 5 6 7 9 7 6 7 7 7 7 8 8 8 8 9 9 9 9 10
9 8 8 7 6 5 4 3 2 2 2 2 2 2 2 1 1 4 6 5 5 4 3 5 5 7 9 9 6 6 7 7 7 7 7 7 7 8 8 9 9 9 9 10
6 5 4 4 3 2 1 1 1 2 2 2 2 2 2 3 2 3 4 5 5 4 5 6 6 7 10 7 5 6 7 7 7 7 7 7 7 8 8 9 9 9 9 10
4 3 2 2 2 1 1 1 1 1 1 1 1 2 2 2 5 6 7 8 7 5 6 5 5 7 7 4 5 6 6 7 7 7 7 7 7 7 8 8 9 9 9 11
1 1 1 2 3 2 1 2 1 1 1 2 3 4 4 5 6 6 6 7 5 3 5 4 0 4 4 5 6 6 6 6 6 7 7 7 8 8 8 8 9 9 9 10
1 2 1 2 3 3 3 2 2 2 2 3 3 4 5 6 7 6 5 5 6 3 3 3 2 1 4 5 5 5 6 5 6 6 7 7 8 8 8 9 11 10 10 10
2 1 0 1 1 2 3 3 3 3 3 3 3 4 4 5 5 5 5 5 4 3 3 3 3 4 5 5 5 5 5 6 6 7 7 7 8 8 9 11 10 10 10 11
Wind_Direction
252 238 211 224 236 240 242 249 262 258 220 147 134 122 122 122 117 119 127 134 132 134 139 146 151 156 163 169 174 179 181 189 199 206 208 212 214 216 215 215 219 216 217 219
247 244 239 241 240 237 242 249 258 253 159 123 121 126 129 129 120 107 104 109 113 120 134 143 147 152 153 158 165 164 168 176 179 183 191 209 219 220 220 221 225 221 219 223
245 248 253 250 241 247 244 245 255 251 130 129 124 117 112 110 107 101 93 85 82 88 88 96 108 114 118 125 127 123 124 124 138 153 163 190 214 211 229 232 232 239 239 236
242 243 246 252 289 276 271 235 147 113 124 122 116 105 90 88 93 92 89 85 79 79 78 76 77 79 78 78 74 74 71 69 57 58 60 52 52 52 26 337 276 262 261 260
241 236 243 253 273 285 261 248 120 122 121 122 121 111 93 87 90 92 89 84 80 78 78 73 72 75 76 70 68 66 60 54 49 45 47 52 40 25 20 358 325 301 285 281
239 239 241 233 208 302 265 214 102 117 133 140 146 130 115 101 94 91 88 85 83 80 78 73 70 73 76 71 64 59 57 56 54 49 42 46 40 25 9 347 329 318 314 307
235 237 231 58 90 209 222 150 104 117 129 146 140 117 123 115 106 100 96 91 86 82 77 72 71 74 75 71 67 63 59 55 48 42 42 47 37 18 358 343 326 306 301 300
230 232 217 47 54 31 88 99 107 119 121 116 110 116 121 118 114 110 103 97 93 88 82 76 72 73 74 67 62 61 57 52 46 34 28 31 17 359 340 325 314 308 304 306
340 90 80 87 110 170 166 126 118 118 119 123 124 125 123 120 116 109 104 100 98 95 89 79 73 73 73 66 58 53 51 45 36 26 13 6 348 335 321 318 327 338 345 344
95 80 53 55 73 84 104 100 108 118 125 127 126 126 124 120 115 111 108 104 99 93 89 83 75 72 74 69 57 47 38 25 1 346 353 357 337 335 343 355 357 357 347 338
95 126 135 71 57 85 91 99 103 112 119 124 125 125 123 119 116 112 105 98 95 93 91 86 80 71 64 56 41 26 10 352 340 346 1 341 323 321 325 336 330 300 317 321
96 124 114 111 102 92 96 101 109 111 111 115 120 121 119 116 112 109 104 101 97 93 89 85 78 71 59 45 29 9 0 354 344 344 353 342 334 329 307 287 249 238 247 273
73 90 96 90 87 91 99 105 107 108 111 110 109 111 111 110 108 106 105 100 96 93 91 87 84 77 62 42 24 7 346 337 333 337 337 333 331 328 325 317 280 260 262 274
74 90 93 93 95 99 103 104 104 104 104 104 104 104 105 103 99 94 90 87 84 81 78 73 69 67 51 35 13 351 332 334 336 334 329 325 329 328 327 329 331 333 308 260
75 89 96 98 96 97 101 105 106 106 105 104 103 101 101 100 98 94 88 83 78 70 62 62 61 55 34 15 2 339 326 332 342 331 319 322 332 333 334 335 334 337 340 340
87 92 98 100 100 102 104 105 104 104 103 102 101 102 106 107 101 93 80 70 64 55 49 52 53 41 25 9 349 328 325 340 333 322 320 334 342 341 337 335 335 337 335 342
97 99 101 102 101 100 99 98 98 98 98 98 100 101 100 96 89 79 68 61 60 67 68 69 53 26 12 9 346 331 332 327 319 324 342 350 347 341 334 334 335 336 334 345
91 93 96 98 100 98 95 94 94 94 95 96 95 91 86 82 76 68 61 57 69 77 69 62 37 5 12 25 354 331 324 327 336 344 347 352 344 334 335 339 339 337 333 335
92 92 91 91 92 91 90 90 90 88 86 84 82 82 84 88 88 73 67 71 93 92 74 57 25 3 11 23 352 316 321 333 343 349 347 349 344 345 345 343 342 340 336 335
92 92 92 91 91 93 95 94 94 90 84 81 83 86 76 56 52 62 72 71 65 65 67 47 21 15 9 14 343 323 337 346 350 353 350 351 351 349 348 345 341 337 337 338
92 94 96 95 93 90 87 87 90 90 85 72 49 24 13 347 343 75 129 110 81 53 56 81 46 22 13 348 317 329 354 3 0 358 354 353 350 348 346 343 341 340 341 340
88 88 86 85 83 81 79 77 79 69 62 49 2 352 342 335 95 93 85 92 94 36 31 57 45 30 360 334 331 357 13 12 4 358 357 356 352 349 347 345 344 345 343 341
81 76 76 75 73 68 64 36 42 54 44 29 0 356 4 32 55 105 106 83 85 59 56 55 36 12 347 337 357 17 21 17 6 359 0 358 355 351 348 346 346 347 344 341
68 57 33 3 352 331 330 343 1 20 1 5 38 54 60 87 85 87 97 89 67 66 74 71 27 356 336 354 17 22 23 17 8 1 1 359 354 353 351 349 349 347 345 343
61 359 335 333 324 338 4 333 339 97 68 65 68 75 70 77 92 93 96 98 98 90 107 110 18 328 351 30 33 22 25 25 8 355 359 358 356 355 353 350 350 349 349 349
311 309 20 347 348 333 331 349 356 29 43 59 62 68 82 89 97 101 104 104 99 86 81 104 87 28 36 40 36 25 21 19 9 5 4 2 359 356 355 355 356 357 354 356
285 293 270 323 1 360 357 2 15 37 50 69 82 85 93 98 101 105 106 109 112 99 84 74 62 54 47 42 36 30 27 22 16 11 8 8 5 1 2 3 5 5 2 1
Height
1437 1438 1445 1451 1452 1451 1455 1455 1458 1456 1457 1460 1461 1463 1467 1468 1470 1473 1476 1479 1481 1485 1488 1491 1494 1497 1500 1504 1507 1509 1512 1513 1515 1518 1520 1522 1524 1525 1527 1528 1529 1529 1530 1531
1439 1436 1438 1443 1441 1442 1444 1443 1444 1447 1454 1456 1461 1465 1467 1470 1471 1474 1477 1480 1482 1484 1487 1490 1493 1496 1498 1501 1505 1507 1508 1510 1512 1514 1516 1518 1520 1521 1522 1523 1524 1525 1525 1526
1444 1436 1439 1447 1438 1438 1437 1434 1438 1447 1452 1456 1461 1465 1468 1470 1473 1476 1479 1481 1483 1485 1487 1489 1492 1494 1497 1500 1503 1505 1506 1508 1509 1510 1512 1514 1515 1516 1518 1518 1519 1520 1521 1521
1442 1445 1461 1441 1429 1430 1432 1432 1434 1441 1448 1455 1463 1468 1472 1474 1476 1478 1481 1483 1485 1486 1488 1490 1492 1494 1496 1498 1500 1502 1503 1504 1506 1507 1508 1510 1511 1512 1514 1514 1515 1516 1517 1517
1443 1448 1447 1439 1434 1434 1437 1438 1435 1442 1449 1457 1463 1470 1475 1478 1479 1481 1483 1485 1487 1488 1489 1491 1492 1494 1495 1497 1499 1501 1502 1503 1504 1506 1507 1507 1509 1509 1510 1511 1511 1512 1512 1513
1441 1447 1454 1443 1435 1435 1437 1447 1440 1444 1451 1456 1462 1468 1479 1481 1482 1484 1486 1487 1489 1491 1492 1493 1495 1496 1497 1498 1500 1501 1502 1503 1504 1505 1506 1506 1507 1507 1508 1509 1509 1509 1509 1509
1438 1441 1440 1439 1438 1438 1453 1454 1445 1448 1452 1457 1460 1467 1477 1481 1484 1487 1489 1490 1492 1493 1495 1496 1498 1499 1499 1501 1502 1504 1505 1505 1505 1505 1506 1506 1506 1506 1507 1507 1507 1507 1506 1506
1434 1442 1451 1443 1441 1449 1451 1447 1447 1450 1455 1460 1465 1471 1477 1482 1487 1490 1492 1494 1495 1496 1498 1499 1501 1501 1502 1503 1505 1506 1506 1506 1506 1506 1506 1506 1506 1506 1505 1505 1505 1505 1504 1503
1443 1448 1447 1444 1447 1448 1448 1448 1450 1453 1458 1463 1468 1474 1480 1485 1489 1492 1494 1497 1499 1499 1501 1503 1504 1504 1505 1506 1507 1508 1508 1507 1507 1506 1506 1506 1505 1505 1504 1504 1503 1503 1502 1500
1446 1446 1446 1447 1446 1448 1449 1451 1453 1456 1460 1465 1470 1477 1482 1487 1492 1495 1497 1499 1501 1503 1504 1505 1507 1507 1508 1508 1509 1509 1508 1508 1508 1507 1507 1506 1505 1505 1504 1503 1502 1500 1499 1497
1446 1448 1447 1447 1449 1450 1451 1453 1456 1460 1464 1468 1473 1479 1485 1490 1494 1497 1500 1502 1504 1505 1507 1508 1509 1510 1510 1510 1510 1510 1510 1510 1509 1509 1508 1506 1505 1504 1503 1501 1500 1498 1496 1494
1449 1449 1448 1450 1450 1451 1454 1456 1459 1463 1469 1474 1477 1482 1487 1492 1496 1499 1502 1504 1506 1508 1509 1510 1511 1512 1512 1512 1512 1511 1511 1511 1510 1509 1507 1506 1504 1503 1501 1500 1497 1495 1493 1491
1447 1447 1449 1450 1453 1455 1457 1461 1464 1469 1473 1478 1483 1486 1490 1495 1499 1501 1504 1506 1508 1509 1511 1512 1512 1513 1513 1513 1512 1512 1511 1510 1509 1508 1506 1504 1502 1500 1498 1497 1494 1491 1489 1486
1449 1450 1452 1455 1458 1460 1462 1466 1470 1475 1479 1483 1487 1490 1494 1497 1501 1503 1505 1507 1509 1510 1512 1513 1513 1513 1513 1513 1512 1511 1510 1509 1507 1506 1504 1502 1500 1498 1496 1493 1491 1488 1486 1483
1453 1454 1457 1460 1462 1465 1469 1473 1476 1481 1485 1489 1492 1495 1498 1500 1503 1505 1507 1509 1510 1511 1512 1513 1513 1513 1513 1512 1511 1510 1509 1508 1505 1503 1502 1500 1498 1495 1493 1491 1488 1485 1482 1479
1458 1459 1462 1465 1468 1472 1476 1479 1482 1486 1490 1493 1496 1498 1501 1503 1505 1507 1508 1509 1510 1511 1512 1512 1512 1512 1511 1510 1509 1508 1507 1505 1503 1501 1499 1497 1495 1492 1490 1488 1485 1482 1479 1476
1463 1465 1468 1471 1475 1478 1481 1485 1488 1491 1494 1496 1499 1501 1503 1505 1506 1508 1509 1510 1510 1511 1511 1511 1511 1511 1510 1509 1508 1506 1505 1503 1501 1499 1497 1494 1492 1490 1487 1485 1482 1479 1477 1473
1469 1471 1474 1477 1480 1484 1487 1490 1492 1495 1497 1499 1501 1503 1504 1506 1507 1508 1509 1509 1510 1510 1510 1510 1510 1509 1508 1507 1505 1503 1502 1501 1499 1497 1494 1492 1489 1487 1485 1482 1479 1476 1473 1470
1475 1478 1480 1483 1486 1488 1491 1494 1496 1498 1500 1501 1503 1504 1505 1506 1507 1508 1508 1509 1509 1509 1509 1508 1508 1507 1506 1504 1503 1501 1500 1498 1496 1494 1492 1489 1487 1484 1482 1479 1476 1473 1470 1467
1482 1484 1486 1489 1491 1493 1495 1497 1499 1500 1502 1503 1504 1505 1506 1507 1507 1507 1507 1507 1507 1507 1507 1507 1506 1505 1503 1502 1500 1499 1498 1496 1494 1492 1489 1487 1485 1482 1480 1477 1474 1471 1468 1464
1487 1489 1491 1493 1495 1496 1498 1499 1501 1502 1503 1504 1505 1505 1505 1506 1506 1506 1506 1506 1506 1506 1505 1505 1504 1502 1501 1499 1498 1497 1496 1494 1492 1490 1488 1485 1483 1480 1478 1475 1472 1469 1465 1462
1491 1493 1495 1496 1497 1499 1500 1501 1502 1502 1503 1504 1504 1504 1504 1504 1504 1504 1504 1504 1504 1504 1504 1503 1502 1500 1499 1497 1497 1496 1494 1492 1490 1488 1486 1484 1481 1479 1476 1474 1470 1467 1464 1460
1495 1496 1497 1498 1499 1500 1501 1501 1502 1502 1502 1503 1503 1503 1503 1503 1503 1503 1503 1503 1503 1502 1502 1500 1499 1498 1497 1496 1495 1494 1492 1490 1489 1487 1485 1483 1480 1478 1475 1473 1469 1466 1462 1458
1496 1497 1498 1499 1500 1500 1500 1500 1501 1501 1501 1501 1501 1501 1502 1502 1501 1501 1501 1501 1501 1501 1500 1499 1498 1497 1496 1495 1494 1493 1491 1490 1488 1486 1484 1482 1480 1477 1475 1472 1469 1465 1461 1458
1498 1498 1499 1499 1499 1499 1499 1499 1499 1499 1500 1500 1500 1500 1500 1500 1500 1500 1500 1499 1499 1499 1499 1498 1497 1496 1496 1495 1494 1493 1491 1489 1488 1486 1484 1482 1480 1477 1474 1471 1468 1465 1461 1457
1497 1497 1498 1498 1498 1498 1498 1498 1498 1498 1498 1498 1498 1499 1498 1498 1498 1499 1499 1499 1499 1499 1499 1498 1498 1497 1496 1495 1494 1493 1492 1490 1488 1486 1484 1482 1480 1477 1474 1471 1468 1464 1461 1457
1496 1496 1496 1497 1497 1497 1497 1497 1497 1497 1497 1497 1497 1498 1498 1498 1498 1498 1498 1499 1499 1499 1499 1499 1498 1498 1497 1496 1495 1493 1492 1491 1489 1487 1485 1483 1480 1477 1475 1472 1468 1465 1461 1457